INTELSAT 904 (IS-904)

Last updated on Sun Oct 06 2024 00:02:38 GMT+0000 (Coordinated Universal Time)

1 27380U 02007A 24279.32052213 -.00000202 00000+0 00000+0 0 9994 2 27380 5.3549 76.5323 0002953 128.6388 255.2229 1.00272197 45554
UTC large
Height (km)
Speed (km/s)
/
Latitude / Longitude
Inclination (degrees)
Orbital Period (minutes)
Azimuth
Elevation
Range (km)
Doppler Factor

Next 0 passes for location: London (51.5072 / 0.1276)

Sorry there are no passes over London.